Bartlesville, OK

10:18 AM CDT on May 27, 2017 (GMT -0500)
Bartlesville Municipal

Weather History for KBVO - March, 2014

Change the Weather History Date:

Monday, March 17, 2014

  Actual Average Record
Temperature  
Mean Temperature 37 °F -  
Max Temperature 54 °F 64 °F 87 °F (2011)
Min Temperature 21 °F 38 °F 18 °F (1970)
Degree Days  
Heating Degree Days 28    
Moisture  
Dew Point 25 °F    
Average Humidity 64    
Maximum Humidity 96    
Minimum Humidity 38    
Precipitation  
Precipitation 0.00 in - - ()
Sea Level Pressure  
Sea Level Pressure 29.87 in    
Wind  
Wind Speed 4 mph (SSE)    
Max Wind Speed 15 mph    
Max Gust Speed 20 mph    
Visibility 10 miles    
Events      
Averages and records for this station are not official NWS values.
T = Trace of Precipitation, MM = Missing Value Source: NWS Daily Summary

Daily Weather History Graph

Daily Weather History Graph

Search for Another Location

Airport or City:

Trip Planner

Search our weather history database for the weather conditions in past years. The results will help you decide how hot, cold, wet, or windy it might be!

Date:

Astronomy

Mar. 17, 2014 Rise Set
Actual Time 7:31 AM CDT 7:33 PM CDT
Civil Twilight 7:06 AM CDT 7:59 PM CDT
Nautical Twilight 6:36 AM CDT 8:29 PM CDT
Astronomical Twilight 6:05 AM CDT 8:59 PM CDT
Moon 8:48 PM CDT (3/17) 7:50 AM CDT (3/17)
Length of Visible Light 12h 52m
Length of Day
12h 01m
Full, 99% of the Moon is Illuminated
Mar 17
Full
Mar 23
Last Quarter
Mar 30
New
Apr 7
First Quarter
Apr 15
Full

Hourly Weather History & Observations

Time (CDT) Temp. Windchill Dew Point Humidity Pressure Visibility Wind Dir Wind Speed Gust Speed Precip Events Conditions
12:53 AM 28.9 °F 25.2 °F 24.1 °F 82% 30.13 in 10.0 mi North 3.5 mph - N/A   Clear
1:53 AM 28.0 °F - 23.0 °F 81% 30.11 in 10.0 mi Calm Calm - N/A   Clear
2:53 AM 26.1 °F - 23.0 °F 88% 30.09 in 10.0 mi Calm Calm - N/A   Clear
3:53 AM 24.1 °F - 21.9 °F 91% 30.07 in 10.0 mi Calm Calm - N/A   Clear
4:53 AM 21.9 °F - 19.9 °F 92% 30.04 in 9.0 mi Calm Calm - N/A   Clear
5:53 AM 21.9 °F - 19.9 °F 92% 30.03 in 9.0 mi Calm Calm - N/A   Clear
6:53 AM 21.0 °F - 19.0 °F 92% 30.01 in 9.0 mi Calm Calm - N/A   Clear
7:53 AM 21.0 °F - 19.9 °F 96% 30.00 in 7.0 mi Calm Calm - N/A   Clear
8:53 AM 25.0 °F - 23.0 °F 92% 30.00 in 9.0 mi Calm Calm - N/A   Clear
9:53 AM 32.0 °F - 25.0 °F 75% 29.99 in 10.0 mi Calm Calm - N/A   Clear
10:53 AM 36.0 °F 32.1 °F 21.9 °F 57% 29.96 in 10.0 mi SE 4.6 mph - N/A   Clear
11:53 AM 42.1 °F 38.4 °F 26.1 °F 53% 29.93 in 10.0 mi South 5.8 mph - N/A   Clear
12:53 PM 46.0 °F 41.4 °F 27.0 °F 47% 29.88 in 10.0 mi South 9.2 mph - N/A   Clear
1:53 PM 50.0 °F - 28.9 °F 44% 29.83 in 10.0 mi SSE 6.9 mph - N/A   Clear
2:53 PM 52.0 °F - 30.0 °F 43% 29.79 in 10.0 mi SSE 13.8 mph 19.6 mph N/A   Clear
3:53 PM 52.0 °F - 28.9 °F 41% 29.75 in 10.0 mi SSE 11.5 mph - N/A   Clear
4:53 PM 53.1 °F - 28.0 °F 38% 29.73 in 10.0 mi SSE 15.0 mph - N/A   Clear
5:53 PM 53.1 °F - 28.0 °F 38% 29.71 in 10.0 mi SSE 12.7 mph 18.4 mph N/A   Clear
6:53 PM 50.0 °F - 28.0 °F 43% 29.69 in 10.0 mi South 5.8 mph - N/A   Clear
7:53 PM 48.9 °F - 28.0 °F 44% 29.68 in 10.0 mi SSE 9.2 mph - N/A   Clear
8:53 PM 46.9 °F - 28.0 °F 48% 29.66 in 10.0 mi South 11.5 mph - N/A   Clear
9:53 PM 45.0 °F 40.1 °F 27.0 °F 49% 29.65 in 10.0 mi SSE 9.2 mph - N/A   Clear
10:53 PM 45.0 °F 38.5 °F 27.0 °F 49% 29.64 in 10.0 mi SSE 13.8 mph - N/A   Clear
11:53 PM 43.0 °F 38.2 °F 28.0 °F 56% 29.62 in 10.0 mi South 8.1 mph - N/A   Clear